Location: Capelle
(50.3413°N, 1.9974°E)
Time: 07:11:23
(UTC+00:00)

SL-24 R/B - RUBIN 2 - Pass Details

Date: 12 January 2026
Orbit: 602 x 984 km, 64.6° (Epoch: 18 February)

Event Time Altitude Azimuth Distance (km) Brightness Sun altitude
Rises 18:03:51 0° 320° (NW) 2,906 7.4 -17.0°
Reaches altitude 10° 18:06:14 10° 326° (NNW) 1,974 6.4 -17.3°
Maximum altitude 18:10:29 47° 41° (NE) 806 3.8 -18.0°
Enters shadow 18:11:28 39° 80° (E) 907 3.9 -18.1°
